FENGYUN 1C DEB

Satellite information

Favourite Embed

Satellite Type and Status

DEBRISIN ORBIT

Key statistics

Satellite FENGYUN 1C DEB at a glance.

Uptime

9662

Days in orbit

Revolutions

≈ 14.3

Per day

Orbit

SSO

Sun Synchronous Orbit

Inclination

98.6

Latest

Satellite identification and parameters

Extended collection of information and parameters for FENGYUN 1C DEB.

Object identification

Identified? True

Debris? True

Object name: FENGYUN 1C DEB

International designator: 1999-025ACJ

Object number (NORAD): 30371

Object ID (CCSDS): 30371

Country: PEOPLES REPUBLIC OF CHINA (PRC)

Current information (Y/N): Y

RCS size: SMALL

Orbital parameters

Period: 100.712 minutes

Inclination: 98.5817 deg

SMA: 7170.477 km

Apoapsis: 799.126 km

Periapsis: 785.558 km

RAAN: 337.6859 deg

Eccentricy: 0.00094607

Argument of periapsis: 129.0038 deg

Mean anomaly: 308.7894 deg

Mean motion: 14.29817851 rev/day

Mean motion (dot): 0.00004293 rev/day2

B* drag term: 0.0016855919 1/REarth

Two-line elements (TLE)

Creation date: Oct. 21, 2025, 3:26 a.m.

Reference frame: TEME

Reference center: EARTH

Epoch: Oct. 20, 2025, 9:57 p.m. UTC

TLE line 0: 0 FENGYUN 1C DEB

TLE line 1: 1 30371U 99025ACJ 25293.91486354 .00004293 00000-0 16856-2 0 9996

TLE line 2: 2 30371 98.5817 337.6859 0009461 129.0038 308.7894 14.29817851971482

Live tracking on map

Real-time ground track for satellite FENGYUN 1C DEB.

In-orbit conjunctions

A list of the most updated potential collisions computed for object FENGYUN 1C DEB.

Target Orbit TCA Probability of collision Miss distance Type
FENGYUN 1C DEB SSO 2025-04-12 14:19:32 0.0001147901 76.0 (m) DEBRIS
FENGYUN 1C DEB SSO 2024-11-11 20:03:32 0.0001137548 341.0 (m) DEBRIS
CZ-6A DEB LEO 2024-10-07 07:46:27 0.0002077103 984.0 (m) DEBRIS
COSMOS 2251 DEB LEO 2024-09-28 05:43:59 0.0003369943 518.0 (m) DEBRIS
FENGYUN 1C DEB SSO 2024-09-25 14:38:55 0.0005081838 408.0 (m) DEBRIS

Associated space launch

Chinese polar orbiting meteorological satellite

FENGYUN 1C DEB was lifted into orbit during the mission ‘Long March 4B | Feng Yun 1C’, on board a Long March 4B space rocket.

The launch took place on May 10, 1999, 1:33 a.m. from Launch Complex 7.

For more information about the launch, click the button.

Launch to space Long March 4B | Feng Yun 1C
Long March 4B | Feng Yun 1C

Agency: N/A

Status: Launch Successful

Launch date: May 10, 1999, 1:33 a.m. UTC

Rocket: Long March 4B

Launch pad: Launch Complex 7

Location: Taiyuan Satellite Launch Center, People's Republic of China

...

Latest news about this satellite

There are no fresh news available about this satellite. Check back as we update our databases every day.


Newsletter sign-up

Weekly statistics, charts and insights to help you stay on top of the space industry.